Время (UTC), дата Ветер
(°,м/с) 
Видим.   Явления Облачность Т
(°С)
Тd
(°С)
f(%) Тe
(°С)
Pmin
(гПа)
dP
(гПа)
Po
(мм)
O2
(г/м3)
Тmin Tmax R s Состояние
почвы
00 15.05.14 350 (С) 20000 м    8/0 средняя, верхняя 
[Ac trans|Ci fib]
+13 +12.3 96 +19  1014.1  -1.4  721  275           
03 15.05.14 220 (ЮЗ) 20000 м    8/0 верхняя 
[Ci fib]
+14.3 +11.8 85 +20  1013.6  -0.3  721  274  +11.2        влажная 
06 15.05.14 130 (ЮВ) 20000 м    8/0 верхняя 
[Ci]
+18.4 +13.8 75 +27  1013.1  0.3  721  269           
09 15.05.14 110 (В) 20000 м    8/8 750 м 
[Cu med, cong]
+23 +15.2 61 +33  1011.8  -0.4  721  265           
12 15.05.14 100 (В) 6{10}  20000 м    3/3 600 м 
[Cu hum]
+24.4 +13.5 51 +32  1010.6  -0.9  720  264           
15 15.05.14 120 (ЮВ) 20000 м    3/0 верхняя 
[Ci fib]
+22.9 +15.3 62 +33  1010.5  -0.3  720  264    +24.5       
18 15.05.14 170 (Ю) 20000 м    3/0 средняя 
[Ac trans]
+18.6 +14.3 76 +29  1012  0.7  720  269           
21 15.05.14 140 (ЮВ) 20000 м    ясно 
+17.5 +13.7 78 +26  1011.9  -0.3  720  270           
00 16.05.14 150 (ЮВ) 20000 м    ясно 
+17.4 +12.9 75 +24  1011.4  -0.5  720  270           
03 16.05.14 130 (ЮВ) 20000 м    ясно 
+17.4 +13.7 79 +26  1012.1  0.7  720  270  +16.3        сухая 
06 16.05.14 130 (ЮВ) 20000 м    ясно 
+24 +15.3 58 +34  1011.2  0.3  720  264           
09 16.05.14 090 (В) 20000 м    ясно 
+26.2 +12.9 44 +32  1011.2  0.3  721  262           
12 16.05.14 080 (В) 20000 м    ясно 
+27.9 +11.8 37 +32  1010.4  -0.5  720  261           
15 16.05.14 110 (В) 20000 м    4/0 верхняя 
[Ci sp]
+25.9 +15.4 52 +36  1010.6  0.1  720  262    +28       
18 16.05.14 120 (ЮВ) 20000 м    6/0 верхняя 
[Ci fib]
+20.8 +15.4 71 +31  1011.8  0.3  720  266           
21 16.05.14 150 (ЮВ) 20000 м    3/0 верхняя 
[Ci fib]
+20.1 +13.6 66 +27  1012.2  0.2  721  268           
00 17.05.14 160 (Ю) 20000 м    ясно 
+18 +12.6 71 +25  1012.2  0.2  720  270           
03 17.05.14 150 (ЮВ) 20000 м    ясно 
+19.9 +13.7 67 +29  1012  0.1  720  268  +17.6        сухая 
06 17.05.14 090 (В) 20000 м    ясно 
+24 +16.2 62 +36  1011.5  0.3  721  263           
09 17.05.14 080 (В) 20000 м    ясно 
+26.5 +12.7 42 +32  1011.2  721  262           
12 17.05.14 090 (В) 7{10}  20000 м    ясно 
+28.2 +12.8 39 +34  1010.1  -0.7  720  261           
15 17.05.14 110 (В) 20000 м    1/0 верхняя 
[Ci fib]
+26.1 +15.3 51 +36  1010.2  -0.3  720  262    +28.5       
18 17.05.14 120 (ЮВ) 20000 м    ясно 
+22.2 +14.3 61 +31  1011.2  0.4  720  265           
21 17.05.14 090 (В) 20000 м    ясно 
+18.8 +13 69 +25  1011.2  -0.6  720  269           
00 18.05.14 120 (ЮВ) 20000 м    ясно 
+17.8 +13 73 +25  1011  -0.4  719  270           
03 18.05.14 180 (Ю) 20000 м    ясно 
+18.4 +11.4 64 +23  1011.4  0.5  720  270  +16.6        сухая 
06 18.05.14 080 (В) 20000 м    ясно 
+23.9 +10.2 42 +26  1010.9  0.4  720  265           
09 18.05.14 070 (В) 20000 м    ясно 
+26.1 +11.7 41 +30  1010.1  -0.4  720  263           
12 18.05.14 100 (В) 7-11{11}  20000 м    3/0 средняя 
[Ac trans]
+27.7 +12.8 40 +34  1009.1  -0.7  719  261           
15 18.05.14 170 (Ю) 3{11}  20000 м    6/0 средняя 
[Ac trans]
+24.5 +15.8 58 +36  1009.9  0.3  720  263    +27.7       
18 18.05.14 170 (Ю) 3{11}  20000 м    6/0 средняя 
[Ac trans]
+24.5 +15.8 58 +36  1009.9  0.3  720  263    +27.7       
21 18.05.14 310 (СЗ) 5{11}  20000 м    6/3 1000 м кучево-дожд., средняя 
[Cb calv|Ac trans]
+16.6 +15 90 +26  1013  0.8  721  271           
00 19.05.14 280 (З) 8-12{13}  20000 м    3/1 1000 м кучево-дожд., средняя 
[Cb calv|Ac trans]
+14.7 +12.7 88 +20  1014.4  0.9  722  273           
03 19.05.14 300 (СЗ) 20000 м    4/3 1000 м кучево-дожд., средняя 
[Cb calv|Ac trans]
+14.6 +12 84 +19  1016  1.5  723  274  +14        сухая 
06 19.05.14 310 (СЗ) 6-10{12}  20000 м    6/3 1000 м кучево-дожд., средняя 
[Cb calv|Ac trans]
+19 +12.8 67 +25  1014.8  -0.4  722  270           
09 19.05.14 310 (СЗ) 5{10}  20000 м    6/4 1000 м кучево-дожд., средняя 
[Cb calv|Ac trans]
+20.1 +14.3 69 +29  1015  0.4  723  268           
12 19.05.14 320 (СЗ) 20000 м    8/4 600 м кучево-дожд., средняя 
[Cb calv|Ac trans]
+22.1 +14.4 62 +31  1014.4  -0.2  722  266           
15 19.05.14 220 (ЮЗ) 20000 м  слаб. ливневой дождь, в посл. час гроза  10/6 600 м кучево-дожд., средняя 
[Cb cap|Ac und]
+22.1 +14.4 62 +31  1014.4  0.1  723  266    +22.8     
18 19.05.14 330 (СЗ) 20000 м  гроза без осадков{ливн. осадки}  10/5 600 м кучево-дожд., средняя 
[Cb calv|Ac und]
+15.7 +13 84 +21  1017.4  1.6  724  273           
21 19.05.14 320 (СЗ) 20000 м  {гроза}  8/4 600 м кучево-дожд., средняя 
[Cb calv|Ac trans]
+15.1 +12.2 83 +20  1017.2  -0.3  724  274           
00 20.05.14 330 (СЗ) 20000 м  {гроза}  6/3 600 м кучево-дожд., средняя 
[Cb calv|Ac trans]
+13.8 +12.3 91 +18  1017.2  -0.2  723  275           
03 20.05.14 360 (С) 20000 м    8/3 1000 м верхняя 
[Sc diur, vesp|Ci]
+14 +12.3 89 +20  1017.2  723  275  +13.4    0.3    влажная 
06 20.05.14 060 (СВ) 20000 м    9/5 660 м 
[Sc]
+17.7 +12.4 71 +23  1017.4  0.8  724  272           
09 20.05.14 070 (В) 20000 м    8/6 870 м средняя 
[Sc|Ac As]
+20.9 +14.8 68 +30  1017  0.8  724  268           
12 20.05.14 070 (В) 6{11}  20000 м    6/3 600 м верхняя 
[Cu hum|Ci fib]
+24.2 +13.1 50 +31  1015.5  -0.9  724  265           
15 20.05.14 060 (СВ) 20000 м  в посл. час гроза  10/4 600 м кучево-дожд., средняя 
[Cb calv|Ac und]
+21.7 +12.7 57 +28  1015  -0.9  723  267    +25.1       
18 20.05.14 120 (ЮВ) 20000 м  {гроза}  10/3 1000 м кучево-дожд., средняя, верхняя 
[Cb cap|Ac As|Ci ing]
+18.2 +12 67 +24  1017  1.3  724  271           
21 20.05.14 080 (В) 20000 м    3/0 средняя 
[Ac trans]
+15.6 +9.7 68 +16  1017.9  0.3  724  274           
00 21.05.14 090 (В) 20000 м    ясно 
+12.9 +9.2 78 +13  1018.6  0.2  724  277           
03 21.05.14 060 (СВ) 20000 м    6/0 средняя, верхняя 
[Ac lent|Ci]
+13.4 +10.7 84 +16  1018.9  0.3  724  276  +11.2        сухая 
06 21.05.14 090 (В) 20000 м    6/3 600 м кучево-дожд., верхняя 
[Cb calv|Ci fib]
+17.8 +12.9 73 +24  1019  0.9  725  272           
09 21.05.14 080 (В) 8-11{12}  20000 м    9/1 600 м средняя, верхняя 
[Cu hum|Ac trans|Ci fib]
+20.5 +10.1 51 +22  1018.7  0.1  725  270           
12 21.05.14 100 (В) 8-11{14}  20000 м    9/1 600 м средняя, верхняя 
[Cu hum|Ac trans|Ci fib]
+21.9 +8.3 42 +22  1018  -0.4  725  269           
15 21.05.14 090 (В) 7{13}  20000 м    9/0 средняя, верхняя 
[Ac trans|Ci fib]
+19.3 +3.5 35 +19  1017.8  -0.7  724  272    +22       
18 21.05.14 080 (В) 7{11}  20000 м    6/0 средняя 
[Ac trans]
+15 +3.8 47 +14  1018.8  0.3  725  276           
21 21.05.14 090 (В) 6{10}  20000 м    6/0 средняя 
[Ac trans]
+12.5 +3 52 +11  1018.4  -0.8  724  278           
00 22.05.14 090 (В) 20000 м    3/0 средняя 
[Ac trans]
+9.9 +3.3 64 +9  1018.5  -0.4  724  281           
03 22.05.14 110 (В) 20000 м    3/0 верхняя 
[Ci fib]
+11.8 +8.8 82 +11  1018.1  0.1  724  278  +9.8        сухая 
06 22.05.14 090 (В) 7-10{10}  20000 м    6/0 верхняя 
[Ci fib]
+17.8 +9.8 59 +20  1016.8  0.1  724  272           
09 22.05.14 090 (В) 8-11{13}  20000 м    8/0 средняя, верхняя 
[Ac trans|Ci fib]
+22.1 +8.7 42 +22  1015.9  -0.2  723  268           
12 22.05.14 110 (В) 5{12}  20000 м    10/0 средняя 
[Ac und]
+20.6 +12.4 59 +26  1015.7  -0.3  723  269           
15 22.05.14 150 (ЮВ) 3{10}  20000 м  {ливн. осадки}  10/4 1000 м кучево-дожд., средняя 
[Cb calv|Ac und]
+19.2 +13.1 68 +26  1015.4  -0.5  723  269    +22.7       
18 22.05.14 080 (В) 20000 м  {ливн. осадки}  10/0 средняя 
[Ac und]
+17.5 +12 70 +23  1015.9  0.2  723  271           
21 22.05.14 090 (В) 6{11}  20000 м    9/0 средняя 
[Ac trans]
+16.2 +7 54 +16  1015.9  -0.4  723  274           
00 23.05.14 070 (В) 20000 м    10/0 средняя 
[Ac und]
+12.9 +7.5 70 +12  1015.5  -0.9  722  276           
03 23.05.14 090 (В) 20000 м    3/0 средняя 
[Ac trans]
+13 +7.2 68 +13  1014.8  -0.6  722  276  +11.1        сухая 
06 23.05.14 110 (В) 20000 м    3/0 средняя 
[Ac trans]
+17.3 +9.4 60 +18  1014.4  0.3  722  272           
09 23.05.14 090 (В) 20000 м    3/0 верхняя 
[Cc]
+20.8 +12.4 59 +26  1014.4  0.7  722  268           
12 23.05.14 110 (В) 6{11}  20000 м    8/3 1000 м кучево-дожд., средняя, верхняя 
[Cb cap|Ac trans|Cc]
+23.8 +12.9 50 +30  1013.1  -0.6  722  265           
15 23.05.14 190 (Ю) 20000 м    8/0 средняя, верхняя 
[Ac As|Ci]
+21.5 +14.5 64 +30  1013.8  0.3  722  267    +23.9       
18 23.05.14 тихо ()   20000 м    8/1 600 м кучево-дожд., средняя 
[Cb calv|Ac trans]
+19 +13 68 +25  1014.8  0.5  722  270           
21 23.05.14 090 (В) 20000 м    3/0 средняя 
[Ac trans]
+16 +13.5 85 +24  1014.8  -0.5  722  272           
00 24.05.14 050 (СВ) 20000 м    1/0 верхняя 
[Ci fib]
+13.7 +11.4 86 +18  1015.1  0.1  722  275           
03 24.05.14 070 (В) 20000 м    3/0 верхняя 
[Ci fib]
+13.6 +10.1 79 +16  1015.8  0.6  722  275  +11.8        сухая 
06 24.05.14 150 (ЮВ) 20000 м    4/0 верхняя 
[Ci fib]
+20.8 +11.7 56 +25  1014.6  0.1  722  268           
09 24.05.14 070 (В) 20000 м    6/1 600 м верхняя 
[Cu hum|Ci fib]
+23.1 +13.2 54 +30  1013.8  -0.3  722  266           
12 24.05.14 070 (В) 20000 м    4/1 600 м верхняя 
[Cu hum|Ci fib]
+24.6 +11 42 +28  1012.7  -0.8  722  265           
15 24.05.14 080 (В) 20000 м    8/1 1000 м верхняя 
[Cu hum|Ci fib]
+22.5 +11.6 50 +27  1012.9  0.1  721  266    +24.8       
18 24.05.14 210 (ЮЗ) 20000 м  зарница  8/3 600 м кучево-дожд., средняя 
[Cb calv|Ac trans]
+19.8 +13.7 68 +28  1013.9  0.5  722  268           
21 24.05.14 060 (СВ) 20000 м    4/1 1000 м кучево-дожд., средняя 
[Cb calv|Ac trans]
+17.7 +13 74 +25  1012.6  -1.6  721  270           
00 25.05.14 тихо ()   20000 м    4/0 средняя 
[Ac trans]
+17 +12.7 76 +23  1012.2  -0.5  720  271           
03 25.05.14 070 (В) 20000 м    8/0 средняя 
[Ac trans]
+16.5 +13.6 83 +25  1012.5  0.2  720  271  +15.4        сухая 
06 25.05.14 070 (В) 20000 м    8/0 средняя 
[Ac trans]
+20.5 +14.6 69 +30  1011.9  0.1  720  267           
09 25.05.14 150 (ЮВ) 20000 м    8/4 600 м средняя 
[Cu hum|Ac trans]
+23.6 +13.6 53 +31  1010.7  -0.6  720  264           
12 25.05.14 330 (СЗ) 20000 м    10/6 600 м кучево-дожд., средняя 
[Cb calv|Ac und]
+22.8 +13.1 54 +29  1009.8  -1  719  265           
15 25.05.14 330 (СЗ) 20000 м    10/6 600 м кучево-дожд., средняя 
[Cb calv|Ac und]
+22.8 +13.1 54 +29  1009.8  -1  719  265           
18 25.05.14 250 (З) 8-11{14}  20000 м  слаб. ливневой дождь, в посл. час гроза  10/6 600 м кучево-дожд., средняя 
[Cb cap|Ac und]
+15.5 +14 91 +23  1011.8  0.6  720  272           
21 25.05.14 260 (З) 6{11}  20000 м  в посл. час ливневой дождь  10/6 600 м кучево-дожд., средняя 
[Cb calv|Ac und]
+15.5 +14.4 93 +24  1011.1  -0.7  719  271           
00 26.05.14 260 (З) 4{11}  20000 м  слаб. ливневой дождь  10/6 700 м кучево-дожд., средняя 
[Cb cap|Ac und]
+15.5 +14.3 93 +24  1010.7  -0.4  719  271           
03 26.05.14 270 (З) 10 км  слаб. ливневой дождь  10/6 300 м кучево-дожд., средняя 
[Cb cap|Ac und]
+15.3 +14.1 93 +23  1010.4  -0.3  719  271  +14.9    21     
06 26.05.14 260 (З) 8-12  10 км  слаб. ливневой дождь  10/5 240 м кучево-дожд., средняя 
[Cb cap|Ac und]
+15.2 +13.8 91 +22  1010.9  0.5  719  272           
09 26.05.14 260 (З) 7-11  10 км  слаб. ливневой дождь  10/6 300 м кучево-дожд., средняя 
[Cb cap|Ac und]
+15.6 +14.2 91 +23  1011  0.2  719  271           
12 26.05.14 240 (ЮЗ) 6{12}  20000 м  в посл. час ливневой дождь  10/6 300 м кучево-дожд., средняя 
[Cb cap|Ac und]
+16.3 +14.2 87 +24  1010.4  -0.5  719  270           
15 26.05.14 250 (З) 7-10{12}  20000 м  {ливн. осадки}  10/4 600 м кучево-дожд., средняя 
[Cb cap|Ac und]
+16.5 +12.9 79 +22  1008.9  -1.4  718  270    +16.5     
18 26.05.14 270 (З) 8-11  20000 м  {ливн. осадки}  10/6 800 м кучево-дожд., средняя 
[Cb calv|Ac und]
+16.2 +12.8 80 +21  1009  -0.1  718  270           
21 26.05.14 260 (З) 8-12{12}  20000 м  слаб. ливневой дождь  10/4 1000 м кучево-дожд., средняя 
[Cb cap|Ac und]
+15.1 +13.3 89 +21  1009  -0.2  718  271           
00 27.05.14 250 (З) 8-13  3000 м  ливневой дождь  10/8 240 м кучево-дожд., средняя 
[Cb cap|Ac und]
+14.3 +13.4 94 +20  1008.3  -0.8  717  272           
03 27.05.14 260 (З) 10  20000 м  {ливн. осадки}  8/5 300 м кучево-дожд., средняя 
[Cb calv|Ac trans]
+15.9 +12.9 82 +21  1007.1  -0.8  716  270  +14.3    12     
06 27.05.14 260 (З) 11-16{17}  20000 м  {ливн. осадки}  8/5 300 м кучево-дожд., средняя 
[Cb calv|Ac trans]
+16.1 +13.2 83 +22  1007.5  0.4  717  270           
09 27.05.14 270 (З) 11-16{18}  20000 м    9/6 450 м кучево-дожд., средняя 
[Cb calv|Ac trans]
+18.5 +14.6 78 +27  1007.3  0.3  717  267           
12 27.05.14 270 (З) 9-14{17}  20000 м    8/5 300 м кучево-дожд., средняя 
[Cb calv|Ac trans]
+20.3 +15.7 75 +31  1006.9  0.1  717  265           
15 27.05.14 270 (З) 10 км  гроза, ливневой дождь  10/6 300 м кучево-дожд., средняя 
[Cb cap|Ac und]
+17.9 +16.2 90 +30  1006.9  -0.4  717  267    +20.8     
18 27.05.14 270 (З) 7-10{14}  20000 м  гроза без осадков{ливн. осадки}  10/4 600 м кучево-дожд., средняя 
[Cb calv|Ac und]
+17.2 +15.4 89 +28  1007.5  0.4  717  268           
21 27.05.14 280 (З) 7-11{11}  20000 м  гроза без осадков{ливн. осадки}  10/6 300 м кучево-дожд., средняя 
[Cb cap|Ac und]
+16.2 +14.7 91 +25  1007.3  -0.3  717  269           
00 28.05.14 280 (З) 5{12}  20000 м  слаб. ливневой дождь{гроза}  10/8 240 м кучево-дожд., средняя 
[Cb cap|Ac und]
+16 +14.6 91 +25  1007.3  0.1  717  270           
03 28.05.14 280 (З) 20000 м  {ливн. осадки}  9/5 600 м кучево-дожд., средняя 
[Cb calv|Ac trans]
+15.3 +13 86 +21  1007.4  0.1  717  271  +15.1    17     
06 28.05.14 270 (З) 7-10{10}  20000 м  {ливн. осадки}  9/3 600 м кучево-дожд., средняя 
[Cb calv|Ac trans]
+16.9 +13.6 81 +23  1008.1  0.9  717  269           
09 28.05.14 270 (З) 6{11}  20000 м    9/1 600 м средняя 
[Cu hum|Ac trans]
+21.1 +15.7 71 +32  1007.5  0.2  717  265           
12 28.05.14 260 (З) 6{10}  20000 м    5/3 600 м верхняя 
[Cu hum|Ci fib]
+23.4 +15.6 62 +34  1006.7  -0.4  717  263           
15 28.05.14 280 (З) 6{10}  20000 м    3/1 600 м верхняя 
[Cu hum|Ci fib]
+22.5 +15.2 63 +33  1006.9  717  264    +23.4       
18 28.05.14 310 (СЗ) 20000 м  гроза без осадков  8/5 1000 м кучево-дожд., средняя 
[Cb calv|Ac trans]
+19.4 +15.5 78 +31  1008.9  1.4  718  267           
21 28.05.14 280 (З) 10 км  в посл. час гроза{ливн. осадки}  9/6 800 м кучево-дожд., средняя 
[Cb calv|Ac trans]
+17.7 +16.3 91 +30  1009.6  0.3  719  268           
00 29.05.14 260 (З) 10 км  {гроза, ливн. осадки}  6/3 600 м кучево-дожд., средняя 
[Cb calv|Ac trans]
+16.4 +15.2 93 +26  1009.8  719  270           
03 29.05.14 270 (З) 20000 м    3/1 600 м кучево-дожд., средняя 
[Cb calv|Ac trans]
+16.9 +14.9 88 +27  1010.6  0.8  719  270  +15.9    0.3    влажная 
06 29.05.14 280 (З) 20000 м    3/3 600 м 
[Cu hum]
+20.6 +15.3 72 +31  1011.4  1.4  720  267           
09 29.05.14 290 (З) 20000 м    6/6 800 м 
[Cu hum]
+23.2 +14.6 58 +32  1011.5  0.5  721  265           
12 29.05.14 120 (ЮВ) 20000 м    8/8 800 м кучево-дожд. 
[Cb calv]
+24.8 +15.2 55 +35  1010.6  -0.6  720  263           
15 29.05.14 060 (СВ) 20000 м  в посл. час гроза  9/6 600 м кучево-дожд., верхняя 
[Cb calv|Ci fib]
+22.6 +15.8 65 +34  1011.5  0.6  721  265    +25.8       
18 29.05.14 090 (В) 20000 м  гроза без осадков  6/3 1000 м кучево-дожд., средняя 
[Cb calv|Ac trans]
+19.4 +14.8 75 +29  1013.2  721  268           
21 29.05.14 230 (ЮЗ) 20000 м  {гроза}  4/0 средняя 
[Ac trans]
+16.3 +11.9 75 +22  1013.3  721  272           
00 30.05.14 110 (В) 20000 м    ясно 
+16.6 +13.1 80 +25  1012.8  -0.4  721  271           
03 30.05.14 160 (Ю) 20000 м    1/0 верхняя 
[Ci fib]
+17.9 +14.4 80 +28  1012.5  721  269  +14.4        сухая 
06 30.05.14 110 (В) 20000 м    6/0 верхняя 
[Ci fib]
+22.1 +15.9 68 +34  1011.5  -0.3  720  265           
09 30.05.14 100 (В) 20000 м    8/5 600 м верхняя 
[Cu hum|Ci fib]
+24.6 +16.5 61 +37  1011  720  263           
12 30.05.14 120 (ЮВ) 5{10}  20000 м    9/4 600 м верхняя 
[Cu hum|Ci fib]
+24.6 +16.1 59 +36  1010.4  -0.6  720  263           
15 30.05.14 100 (В) 20000 м    9/1 600 м верхняя 
[Cu hum|Ci fib]
+23.6 +16.2 63 +36  1010.3  -0.2  720  263    +26       
18 30.05.14 090 (В) 20000 м    8/0 средняя, верхняя 
[Ac cuf|Ci sp]
+19.7 +16.3 81 +32  1010.4  -0.5  719  267           
21 30.05.14 100 (В) 20000 м    4/0 верхняя 
[Ci fib]
+18.5 +13.7 74 +27  1010.5  -0.2  719  269           
00 31.05.14 110 (В) 20000 м    10/3 600 м средняя, верхняя 
[Sc|Ac As|Ci]
+16.2 +13.7 85 +24  1010.8  -0.1  719  271           
03 31.05.14 120 (ЮВ) 20000 м    10/3 300 м средняя, верхняя 
[St|Ac As|Ci]
+16 +14.4 90 +25  1010.3  -0.5  719  271  +15.4        сухая 
06 31.05.14 120 (ЮВ) 7-10{12}  20000 м    8/3 300 м верхняя 
[St|Ci fib]
+19.7 +15.1 75 +30  1009.6  719  267           
09 31.05.14 110 (В) 9-12{14}  20000 м    4/4 600 м 
[Cu hum]
+23.2 +15.9 64 +35  1008.7  -0.3  719  263           
12 31.05.14 110 (В) 9-12{14}  20000 м    4/4 600 м 
[Cu hum]
+24.8 +16.8 61 +38  1007.7  -0.6  718  262           
15 31.05.14 210 (ЮЗ) 20000 м  гроза, ливневой дождь  10/8 600 м кучево-дожд., средняя 
[Cb cap|Ac und]
+21.3 +17.3 78 +36  1010.7  2.3  720  265    +24.8  0.3     
18 31.05.14 110 (В) 7{15}  20000 м  {гроза, ливн. осадки}  5/3 600 м средняя 
[Sc diur, vesp|Ac trans]
+20.2 +15.6 75 +31  1007.6  -3.2  717  266           
21 31.05.14 140 (ЮВ) 6-11{11}  20000 м    8/3 600 м средняя 
[Sc|Ac trans]
+18.6 +14.6 78 +28  1008.9  0.9  718  268           
00 01.06.14 120 (ЮВ) 4{11}  20000 м  в посл. час ливневой дождь  10/6 270 м кучево-дожд., средняя 
[Cb calv|Ac und]
+17.2 +16.1 93 +29  1008.3  -0.8  718  268           
03 01.06.14 100 (В) 2000 м  дымка{морось}  10/10 100 м 
[St]
+17.1 +16.3 95 +29  1008.5  0.2  718  268  +17       
06 01.06.14 140 (ЮВ) 20000 м  {морось}  8/6 600 м кучево-дожд., средняя 
[Cb calv|Ac trans]
+20.6 +16.8 79 +34  1008.3  0.5  718  265           
09 01.06.14 120 (ЮВ) 7-10{10}  20000 м    10/6 500 м кучево-дожд., средняя 
[Cb calv|Ac und]
+20.8 +16.7 77 +34  1009.2  0.9  719  265           
12 01.06.14 150 (ЮВ) 7-10{11}  20000 м    8/3 1000 м кучево-дожд., средняя 
[Cb calv|Ac trans]
+22.5 +16.9 71 +36  1008.1  -0.7  718  264           
15 01.06.14 150 (ЮВ) 3{10}  20000 м    10/3 1000 м кучево-дожд., средняя 
[Cb calv|Ac und]
+21.8 +18 79 +38  1007.8  -0.4  718  264    +23.5       
18 01.06.14 100 (В) 6-10{11}  20000 м    10/5 1000 м кучево-дожд., средняя 
[Cb cap|Ac und]
+20.3 +12.2 60 +25  1008.8  0.5  718  267           
21 01.06.14 100 (В) 8-10{11}  20000 м    9/4 1000 м кучево-дожд., средняя 
[Cb calv|Ac trans]
+17.5 +8.2 54 +17  1009.3  0.1  718  270           
00 02.06.14 090 (В) 4{10}  20000 м    10/3 1000 м кучево-дожд., средняя 
[Cb calv|Ac und]
+14.8 +9.8 72 +17  1008.4  -1.3  717  272           
03 02.06.14 120 (ЮВ) 20000 м    8/3 1000 м кучево-дожд., верхняя 
[Cb calv|Ci fib]
+15.3 +11.3 77 +20  1010.6  2.3  719  272  +14        сухая 
06 02.06.14 110 (В) 8-11{11}  20000 м    9/5 600 м кучево-дожд., средняя 
[Cb calv|Ac trans]
+19.3 +14.5 74 +28  1010.8  0.9  720  268           
09 02.06.14 100 (В) 9-12{14}  10 км    8/0 средняя, верхняя 
[Ac trans|Ci fib]
+22.9 +10.7 46 +26  1010.4  0.2  720  266           
12 02.06.14 110 (В) 10-13{15}  10 км    8/0 средняя, верхняя 
[Ac trans|Ci fib]
+23.8 +10.9 44 +27  1009.7  -0.5  719  265           
15 02.06.14 080 (В) 8-12  10 км    9/0 средняя, верхняя 
[Ac trans|Ci fib]
+21.4 +10.4 49 +24  1009.8  -0.3  719  267    +24.4       
18 02.06.14 070 (В) 6{12}  20000 м    8/4 1000 м средняя 
[Sc|Ac trans]
+17.1 +9.4 60 +18  1010.5  0.1  719  271           
21 02.06.14 080 (В) 6{11}  20000 м    8/3 1000 м кучево-дожд., средняя 
[Cb calv|Ac trans]
+15.3 +6.4 55 +15  1010.5  -0.4  719  273           
00 03.06.14 100 (В) 5{10}  20000 м    9/3 1000 м кучево-дожд., средняя 
[Cb calv|Ac trans]
+14.4 +8.8 69 +14  1010.2  -0.4  718  273           
03 03.06.14 110 (В) 20000 м    8/0 средняя 
[Ac trans]
+15.4 +9.7 69 +18  1010  718  272  +13.6        сухая 
Время (UTC), дата Ветер
(°,м/с) 
Видим.   Явления Облачность Т
(°С)
Тd
(°С)
f(%) Тe
(°С)
Pmin
(гПа)
dP
(гПа)
Po
(мм)
O2
(г/м3)
Тmin Tmax R s Состояние
почвы